THORAD AGENA D DEB, 4432

Orbit data source: Space-Track

THORAD AGENA D DEB, 4432 is space debris in LEO originally from a launch on Tue, 30 Sep 1969 UTC launched from the Air Force Western Test Range (AFWTR). Debris objects in space refer to the collection of defunct objects orbiting the Earth. Examples of debris include non-operational satellites, rocket bodies, and fragments generated from explosions, collisions, or faulty payload assembly.

Loading next visibility...
Identifier
4432, 1969-082ED
Orbit
LEO
Country
Flag of USUS
Related business
Manufacturer
Unknown
Mission
Spacecraft
Bus & Motor
Unknown
Mass
Unknown
Launch date (UTC)
1969-09-30 (57 years ago)
Launch vehicle
Unknown
Launch site
Air Force Western Test Range (AFWTR)
Object type
Payload
Rocket body
Debris
Shape & HBR
Unknown shape, 0.1 m
Radar Cross Section
Small (<0.1 m²)

Expand to show TLE details & history
Last TLE update: 1 day ago

TLE from 1 day ago
0 THORAD AGENA D DEB
1 04432U 69082ED  26093.13094300  .00000729  00000-0  29781-3 0  9996
2 04432  69.9748 108.7425 0055176 240.2375 119.3254 14.30380246924351
Epoch: 2026-04-03T03:08Z
TLE epoch observation values (Epoch: 2026-04-03T03:08:33.475Z)
Latitude
0.00003°
Longitude
-129.86645°
Altitude
812.348 km
Speed
7.437 km/s
True Right ascension
07h 14m 58s
True Declination
0° 00' 00"
Sunlit
Object was in daylight at epoch
Visualization orbit readout
Latitude
Unknown
Longitude
Unknown
Altitude
Unknown
Speed
Unknown
Apparent Right ascension
Unknown
Apparent Declination
Unknown
Sunlit
N/A
Visualization observer readout
Local Sidereal Time
15:14:32
Azimuth
Unknown
Elevation
Unknown
Doppler factor
Unknown
Orbital elements
Apogee altitude
828.016 km
Perigee altitude
748.931 km
Semi-major axis
7,166.611 km
Eccentricity
0.00552
Inclination
69.9748°
RAAN
108.7425°
Arg. of periapsis
240.2375°
True anomaly
119.87478°
Mean anomaly
119.3254°
Eccentric anomaly
119.60028°
Mean motion
3.57744 °/min
Orbital period
100.63 mins
BSTAR
0.00029781
Loading maneuver chart data...
Computing Atmospheric mass density...

Documentation

Showing up to 5 results
|